カタログに戻る

METEOR 3-4

運用中気象PO
NORAD 21232·PAYLOAD·🇷🇺 Russia

打ち上げ Apr 24, 1991 から Plesetsk Cosmodrome

Loading…

次のパス (今後24時間)

TLE

最新Source: Space-Track

元期: Sep 14, 2026, 14:27 UTC

1 21232U 91030A   26257.60233192  .00000051  00000-0  10067-3 0  9994
2 21232  82.5411 121.0983 0012060 298.4466  89.0958 13.16703655700873

AllMySatでMETEOR 3-4をリアルタイム追跡

Download on the App Store